Weather in Rybnik

Poland     50°05′44″N   18°33′10″E
temp.,
°C
wind,
m/s
gust,
m/s
humid.,
%
clouds,
%
prec.,
mm/h
press.,
hPa
HPBL,
m
8 may, sat
sat823:00+3wnw248875 0.0 1017186
02:00+2wsw36895 0.0 1019207
05:00+2sw35885 0.0 1020110
08:00+5sw45725 0.0 1021317
11:00+10w4649100 0.1 10212146
14:00+12w444849 0.4 10201650
17:00+11nnw345252 0.1 1020898
20:00+8ne116389 0.1 102010
9 may, sun
sun923:00+6se23705 0.0 102144
02:00+5sse23695 0.0 102146
05:00+4sse237137 0.0 102149
08:00+9s366040 0.0 1020316
11:00+16ssw584515 0.0 10191175
14:00+19ssw68415 0.0 10181380
17:00+19sw57455 0.0 10171159
20:00+14s236222 0.0 101750
10 may, mon
mon1023:00+11sse35675 0.0 101780
02:00+9sse35715 0.0 101681
05:00+8se35725 0.0 101580
08:00+14se36591 0.0 1014192
11:00+20sse612435 0.0 10131513
14:00+24s710435 0.0 10121954
17:00+23ssw695169 0.0 10131912
20:00+17sse37651 0.0 1013210
11 may, tue
tue1123:00+15ese367311 0.0 101383
02:00+13ese467751 0.0 101298
05:00+12ese488115 0.0 1010122
08:00+17se366955 0.0 1010233
11:00+24s512425 0.0 10101558
14:00+26s610392 0.0 10091853
17:00+25s69435 0.0 1008862
20:00+19ssw366210 0.0 100798
12 may, wed
wed1223:00+16s22748 0.0 100833
02:00+14se22825 0.0 100735
05:00+13ese228368 0.0 100731
08:00+17ese226951 0.0 1006218
11:00+22n115222 0.0 10061162
14:00+25nne244531 0.1 10032272
17:00+22e776429 0.4 10021028
20:00+16ene71378100 2.2 1003598